sat.trackr.live / text

‹ back to catalog

GONETS-M 25

NORAD 54152 · 2022-139C

PAYLOAD ACTIVE UNKNOWN

§ Identity

Operator
Country
CIS
Launch date
2022-10-22
Launch site
VOSTO
Launch vehicle
Mass (kg)
RCS (m²)

External: N2YO · Heavens-Above · Gunter

§ Orbital elements

Epoch: 2026-05-25T02:52:15.441888Z

Period
115.86 min
Inclination
82.5065°
Eccentricity
0.0019719
Mean motion
12.42889326 rev/d
Perigee alt
1,478.9 km
Apogee alt
1,509.9 km
Semi-major
7,872.5 km
B*
5.0833e-5
RAAN
2.3816°
Arg perigee
282.0944°
Mean anomaly
77.7926°
Rev number
16,278

§ Raw data

GONETS-M 251 54152U 22139C   26145.11962317  .00000017  00000+0  50833-4 0  99922 54152  82.5065   2.3816 0019719 282.0944  77.7926 12.42889326162788

JSON: /api/v1/satellites/54152 · /tle

For live sub-satellite position, see the globe view (requires WebGL).

§ Visibility from observer

Set your observer location to see the next 7 days of passes ≥ 10°. The values pass through the URL so the page stays shareable.

No JS? Fill the form by hand. The geolocation button needs JavaScript.

§ Radio — SatNOGS DB

ModeDescriptionDownlinkUplink
FM UHF Unknown 387.175 MHz
FM UHF Unknown 388.687 MHz
FM UHF Unknown 388.787 MHz
FM UHF Unknown 262.910 MHz

4 transmitters · refreshed weekly from db.satnogs.org